Regional Weather Roundup
Issued by NWS

Home | Current Version | Previous Version | Text Only | Print | Product List | Glossary Off
Versions: 1 2 3 4 5 6 7 8 9 10 11 12 13 14 15 16 17 18 19 20 21 22 23 24 25 26 27 28 29 30 31 32 33 34 35 36 37 38 39 40 41 42 43 44 45 46 47 48 49 50

000
ASUS43 KLMK 261402
RWRKY
KENTUCKY REGIONAL WEATHER ROUNDUP
NATIONAL WEATHER SERVICE LOUISVILLE KY
1000 AM EDT SUN APR 26 2015

NOTE "FAIR" INDICATES FEW OR NO CLOUDS BELOW 12,000 FEET
WITH NO SIGNIFICANT WEATHER AND/OR OBSTRUCTIONS TO VISIBILITY.

KYZ001>023-026-027-061>063-070>075-261500-
WESTERN AND SOUTH CENTRAL KENTUCKY

CITY           SKY/WX    TMP DP  RH WIND       PRES   REMARKS
PADUCAH        CLOUDY    51  45  79 NE12      29.84R
HENDERSON      CLOUDY    48  41  76 N13       29.84R
OWENSBORO      PTSUNNY   51  42  71 NE12      29.84R
HOPKINSVILLE   CLOUDY    49  48  94 N13       29.81R
BOWLING GREEN  CLOUDY    49  44  83 N8        29.81R
GLASGOW        NOT AVBL
$$

KYZ024-025-028>034-038-045-046-053-261500-
NORTH CENTRAL KENTUCKY

CITY           SKY/WX    TMP DP  RH WIND       PRES   REMARKS
LOUISVILLE/SDF PTSUNNY   48  35  60 NE10      29.83R
LOUISVILLE/LOU CLOUDY    47  35  63 N7        29.83R
FORT KNOX      MOSUNNY   48  39  70 N16       29.80R
$$

KYZ035>037-039>044-047>052-055>060-089>105-261500-
NORTHEAST KENTUCKY

CITY           SKY/WX    TMP DP  RH WIND       PRES   REMARKS
LEXINGTON      CLOUDY    45  36  70 NE10      29.79R
COVINGTON      MOSUNNY   48  35  60 N12       29.83R
FRANKFORT      CLOUDY    45  35  68 NE7       29.80R
$$

KYZ054-064>069-076>088-106>120-261500-
SOUTHEAST KENTUCKY

CITY           SKY/WX    TMP DP  RH WIND       PRES   REMARKS
JACKSON        CLOUDY    46  42  86 CALM      29.75R
LONDON         CLOUDY    47  42  83 N9        29.74R
SOMERSET       NOT AVBL
MIDDLESBORO    CLOUDY    53  51  94 NE7       29.71R
MONTICELLO     CLOUDY    49  47  93 NE5       29.79R
$$




USA.gov is the U.S. government's official web portal to all federal, state and local government web resources and services.